Year,Month,Day,Hour,Minute,Value (Times are PST for temperature in C)
2010,03,25,11,56,8.90
2010,03,25,11,57,8.90
2010,03,25,11,58,8.90
2010,03,25,11,59,8.90
2010,03,25,12,00,8.90
2010,03,25,12,01,9.00
2010,03,25,12,02,9.00
2010,03,25,12,03,9.00
2010,03,25,12,04,9.00
2010,03,25,12,05,9.10
2010,03,25,12,06,9.10
2010,03,25,12,07,9.10
2010,03,25,12,08,9.10
2010,03,25,12,09,9.20
2010,03,25,12,10,9.20
2010,03,25,12,11,9.20
2010,03,25,12,12,9.20
2010,03,25,12,13,9.20
2010,03,25,12,14,9.20
2010,03,25,12,15,9.20
2010,03,25,12,16,9.20
2010,03,25,12,17,9.20
2010,03,25,12,18,9.20
2010,03,25,12,19,9.20
2010,03,25,12,20,9.20
2010,03,25,12,21,9.20
2010,03,25,12,22,9.20
2010,03,25,12,23,9.20
2010,03,25,12,24,9.20
2010,03,25,12,25,9.20
2010,03,25,12,26,9.20
2010,03,25,12,27,9.20
2010,03,25,12,28,9.20
2010,03,25,12,29,9.20
2010,03,25,12,30,9.20
2010,03,25,12,31,9.20
2010,03,25,12,32,9.20
2010,03,25,12,33,9.20
2010,03,25,12,34,9.20
2010,03,25,12,35,9.20
2010,03,25,12,36,9.20
2010,03,25,12,37,9.20
2010,03,25,12,38,9.20
2010,03,25,12,39,9.20
2010,03,25,12,40,9.20
2010,03,25,12,41,9.20
2010,03,25,12,42,9.20
2010,03,25,12,43,9.30
2010,03,25,12,44,9.30
2010,03,25,12,45,9.30
2010,03,25,12,46,9.30
2010,03,25,12,47,9.30
2010,03,25,12,48,9.30
2010,03,25,12,49,9.30
2010,03,25,12,50,9.40
2010,03,25,12,51,9.40
2010,03,25,12,52,9.40
2010,03,25,12,53,9.40
2010,03,25,12,54,9.40
2010,03,25,12,55,9.30
2010,03,25,12,56,9.30
2010,03,25,12,57,9.40
2010,03,25,12,58,9.40
2010,03,25,12,59,9.40
2010,03,25,13,00,9.40
2010,03,25,13,01,9.40
2010,03,25,13,02,9.40
2010,03,25,13,03,9.40
2010,03,25,13,04,9.40
2010,03,25,13,05,9.40
2010,03,25,13,06,9.40
2010,03,25,13,07,9.50
2010,03,25,13,08,9.50
2010,03,25,13,09,9.50
2010,03,25,13,10,9.50
2010,03,25,13,11,9.50
2010,03,25,13,12,9.50
2010,03,25,13,13,9.50
2010,03,25,13,14,9.60
2010,03,25,13,15,9.60
2010,03,25,13,16,9.60
2010,03,25,13,17,9.60
2010,03,25,13,18,9.60
2010,03,25,13,19,9.70
2010,03,25,13,20,9.70
2010,03,25,13,21,9.80
2010,03,25,13,22,9.80
2010,03,25,13,23,9.80
2010,03,25,13,24,9.90
2010,03,25,13,25,9.90
2010,03,25,13,26,9.90
2010,03,25,13,27,9.90
2010,03,25,13,28,9.90
2010,03,25,13,29,9.80
2010,03,25,13,30,9.80
2010,03,25,13,31,9.80
2010,03,25,13,32,9.80
2010,03,25,13,33,9.80
2010,03,25,13,34,9.80
2010,03,25,13,35,9.80
2010,03,25,13,36,9.80
2010,03,25,13,37,9.80
2010,03,25,13,38,9.80
2010,03,25,13,39,9.80
2010,03,25,13,40,9.80
2010,03,25,13,41,9.80
2010,03,25,13,42,9.80
2010,03,25,13,43,9.90
2010,03,25,13,44,9.90
2010,03,25,13,45,9.90
2010,03,25,13,46,9.90
2010,03,25,13,47,9.90
2010,03,25,13,48,9.90
2010,03,25,13,49,10.00
2010,03,25,13,50,10.00
2010,03,25,13,51,10.00
2010,03,25,13,52,10.00
2010,03,25,13,53,10.00
2010,03,25,13,54,10.00
2010,03,25,13,55,9.90
2010,03,25,13,56,9.90
2010,03,25,13,57,9.90
2010,03,25,13,58,9.90
2010,03,25,13,59,9.90
2010,03,25,14,00,9.90
2010,03,25,14,01,9.90
2010,03,25,14,02,9.80
2010,03,25,14,03,9.80
2010,03,25,14,04,9.80
2010,03,25,14,05,9.80
2010,03,25,14,06,9.80
2010,03,25,14,07,9.90
2010,03,25,14,08,9.90
2010,03,25,14,09,9.90
2010,03,25,14,10,9.90
2010,03,25,14,11,10.00
2010,03,25,14,12,10.00
2010,03,25,14,13,10.10
2010,03,25,14,14,10.10
2010,03,25,14,15,10.10
2010,03,25,14,16,10.20
2010,03,25,14,17,10.20
2010,03,25,14,18,10.20
2010,03,25,14,19,10.20
2010,03,25,14,20,10.30
2010,03,25,14,21,10.30
2010,03,25,14,22,10.30
2010,03,25,14,23,10.30
2010,03,25,14,24,10.30
2010,03,25,14,25,10.30
2010,03,25,14,26,10.40
2010,03,25,14,27,10.40
2010,03,25,14,28,10.40
2010,03,25,14,29,10.50
2010,03,25,14,30,10.50
2010,03,25,14,31,10.60
2010,03,25,14,32,10.60
2010,03,25,14,33,10.60
2010,03,25,14,34,10.60
2010,03,25,14,35,10.50
2010,03,25,14,36,10.50
2010,03,25,14,37,10.50
2010,03,25,14,38,10.50
2010,03,25,14,39,10.50
2010,03,25,14,40,10.50
2010,03,25,14,41,10.50
2010,03,25,14,42,10.50
2010,03,25,14,43,10.50
2010,03,25,14,44,10.50
2010,03,25,14,45,10.60
2010,03,25,14,46,10.60
2010,03,25,14,47,10.60
2010,03,25,14,48,10.60
2010,03,25,14,49,10.60
2010,03,25,14,50,10.70
2010,03,25,14,51,10.70
2010,03,25,14,52,10.70
2010,03,25,14,53,10.70
2010,03,25,14,54,10.70
2010,03,25,14,55,10.70
2010,03,25,14,56,10.70
2010,03,25,14,57,10.70
2010,03,25,14,58,10.70
2010,03,25,14,59,10.70
2010,03,25,15,00,10.70
2010,03,25,15,01,10.60
2010,03,25,15,02,10.60
2010,03,25,15,03,10.70
2010,03,25,15,04,10.70
2010,03,25,15,05,10.70
2010,03,25,15,06,10.70
2010,03,25,15,07,10.70
2010,03,25,15,08,10.70
2010,03,25,15,09,10.70
2010,03,25,15,10,10.70
2010,03,25,15,11,10.80
2010,03,25,15,12,10.80
2010,03,25,15,13,10.80
2010,03,25,15,14,10.80
2010,03,25,15,15,10.80
2010,03,25,15,16,10.80
2010,03,25,15,17,10.90
2010,03,25,15,18,10.90
2010,03,25,15,19,10.90
2010,03,25,15,20,11.00
2010,03,25,15,21,11.00
2010,03,25,15,22,11.10
2010,03,25,15,23,11.10
2010,03,25,15,24,11.20
2010,03,25,15,25,11.30
2010,03,25,15,26,11.30
2010,03,25,15,27,11.40
2010,03,25,15,28,11.40
2010,03,25,15,29,11.40
2010,03,25,15,30,11.40
2010,03,25,15,31,11.40
2010,03,25,15,32,11.40
2010,03,25,15,33,11.30
2010,03,25,15,34,11.30
2010,03,25,15,35,11.30
2010,03,25,15,36,11.30
2010,03,25,15,37,11.30
2010,03,25,15,38,11.30
2010,03,25,15,39,11.20
2010,03,25,15,40,11.30
2010,03,25,15,41,11.30
2010,03,25,15,42,11.30
2010,03,25,15,43,11.40
2010,03,25,15,44,11.50
2010,03,25,15,45,11.50
2010,03,25,15,46,11.60
2010,03,25,15,47,11.60
2010,03,25,15,48,11.60
2010,03,25,15,49,11.60
2010,03,25,15,50,11.60
2010,03,25,15,51,11.60
2010,03,25,15,52,11.50
2010,03,25,15,53,11.50
2010,03,25,15,54,11.60
2010,03,25,15,55,11.50
2010,03,25,15,56,11.50
2010,03,25,15,57,11.50
2010,03,25,15,58,11.40
2010,03,25,15,59,11.40
2010,03,25,16,00,11.40
2010,03,25,16,01,11.40
2010,03,25,16,02,11.40
2010,03,25,16,03,11.40
2010,03,25,16,04,11.40
2010,03,25,16,05,11.30
2010,03,25,16,06,11.30
2010,03,25,16,07,11.20
2010,03,25,16,08,11.20
2010,03,25,16,09,11.10
2010,03,25,16,10,11.10
2010,03,25,16,11,11.10
2010,03,25,16,12,11.00
2010,03,25,16,13,11.00
2010,03,25,16,14,11.00
2010,03,25,16,15,11.00
2010,03,25,16,16,11.00
2010,03,25,16,17,10.90
2010,03,25,16,18,10.90
2010,03,25,16,19,10.90
2010,03,25,16,20,10.90
2010,03,25,16,21,10.80
2010,03,25,16,22,10.80
2010,03,25,16,23,10.80
2010,03,25,16,24,10.80
2010,03,25,16,25,10.80
2010,03,25,16,26,10.80
2010,03,25,16,27,10.80
2010,03,25,16,28,10.80
2010,03,25,16,29,10.70
2010,03,25,16,30,10.70
2010,03,25,16,31,10.70
2010,03,25,16,32,10.70
2010,03,25,16,33,10.70
2010,03,25,16,34,10.70
2010,03,25,16,35,10.70
2010,03,25,16,36,10.70
2010,03,25,16,37,10.70
2010,03,25,16,38,10.70
2010,03,25,16,39,10.70
2010,03,25,16,40,10.60
2010,03,25,16,41,10.60
2010,03,25,16,42,10.60
2010,03,25,16,43,10.60
2010,03,25,16,44,10.60
2010,03,25,16,45,10.60
2010,03,25,16,46,10.60
2010,03,25,16,47,10.60
2010,03,25,16,48,10.60
2010,03,25,16,49,10.60
2010,03,25,16,50,10.60
2010,03,25,16,51,10.60
2010,03,25,16,52,10.60
2010,03,25,16,53,10.60
2010,03,25,16,54,10.60
2010,03,25,16,55,10.60
2010,03,25,16,56,10.60
2010,03,25,16,57,10.60
2010,03,25,16,58,10.60
2010,03,25,16,59,10.60
2010,03,25,17,00,10.70
2010,03,25,17,01,10.70
2010,03,25,17,02,10.70
2010,03,25,17,03,10.70
2010,03,25,17,04,10.70
2010,03,25,17,05,10.70
2010,03,25,17,06,10.70
2010,03,25,17,07,10.70
2010,03,25,17,08,10.70
2010,03,25,17,09,10.60
2010,03,25,17,10,10.60
2010,03,25,17,11,10.60
2010,03,25,17,12,10.60
2010,03,25,17,13,10.60
2010,03,25,17,14,10.60
2010,03,25,17,15,10.60
2010,03,25,17,16,10.50
2010,03,25,17,17,10.50
2010,03,25,17,18,10.50
2010,03,25,17,19,10.50
2010,03,25,17,20,10.40
2010,03,25,17,21,10.40
2010,03,25,17,22,10.40
2010,03,25,17,23,10.40
2010,03,25,17,24,10.40
2010,03,25,17,25,10.40
2010,03,25,17,26,10.40
2010,03,25,17,27,10.40
2010,03,25,17,28,10.40
2010,03,25,17,29,10.40
2010,03,25,17,30,10.40
2010,03,25,17,31,10.30
2010,03,25,17,32,10.30
2010,03,25,17,33,10.30
2010,03,25,17,34,10.30
2010,03,25,17,35,10.30
2010,03,25,17,36,10.30
2010,03,25,17,37,10.30
2010,03,25,17,38,10.30
2010,03,25,17,39,10.30
2010,03,25,17,40,10.30
2010,03,25,17,41,10.30
2010,03,25,17,42,10.30
2010,03,25,17,43,10.30
2010,03,25,17,44,10.30
2010,03,25,17,45,10.30
